#timestamp,LO_Frequency,Hit 
1499698815.4,286046863.1,N
1499698835.2,286046863.4,N
1499698855.1,286046862.4,N
1499698856.0,286046862.4,N
1499698875.8,286046863.4,N
1499698895.6,286046862.4,N
1499698915.5,286046863.2,N
1499698935.3,286046863.1,N
1499698955.1,286046860.9,N
1499698975.9,286046860.6,Y
1499698995.7,286046995.9,N
1499699015.5,286046995.9,N
1499699035.4,286046995.9,N
1499699055.2,286046995.5,N
1499699075.0,286046996.2,N
1499699075.9,286046996.2,N
1499699095.8,286046996.1,N
1499699115.6,286046996.4,N
1499699135.4,286046996.0,N
1499699155.2,286046996.3,N
1499699175.1,286046995.6,N
1499699176.0,286046995.6,N
1499699195.8,286046995.6,N
1499699215.6,286046995.8,N
1499699235.5,286046996.4,N
1499699255.3,286046993.7,N
1499699275.1,286046996.0,N
1499699295.9,286046994.0,N
1499699315.7,286046994.2,N
1499699335.5,286046994.1,N
1499699355.4,286046994.2,N
1499699375.2,286046994.6,N
1499699395.0,286046993.9,N
1499699395.9,286046993.9,N
1499699415.8,286046991.9,N
1499699435.6,286046992.2,N
1499699455.4,286046992.7,N
1499699475.3,286046992.9,N
1499699495.1,286046992.4,N
1499699496.0,286046992.4,N
1499699515.8,286046992.3,N
1499699535.6,286046992.8,N
1499699555.5,286046993.0,N
1499699575.3,286046990.6,N
1499699595.1,286046990.3,N
1499699615.9,286046990.4,N
1499699635.7,286046991.1,N
1499699655.5,286046991.2,N
1499699675.4,286046991.0,N
1499699695.2,286046991.5,N
1499699715.0,286046990.7,N
1499699715.9,286046990.7,N
1499699735.8,286046990.3,N
1499699755.6,286046992.7,N
1499699775.4,286046992.4,N
1499699795.3,286046992.7,N
1499699815.1,286046990.7,N
1499699816.0,286046990.7,N
1499699835.8,286046992.9,N
1499699855.7,286046992.3,N
1499699875.5,286046992.6,N
1499699895.3,286046992.1,N
1499699915.1,286046994.7,N
1499699935.9,286046991.7,N
1499699955.7,286046992.1,N
1499699975.5,286046990.2,N
1499699995.4,286046990.7,N
1499700015.2,286046993.1,N
1499700035.0,286046990.1,N
1499700035.9,286046990.1,N
1499700055.8,286046990.5,N
1499700075.6,286046990.9,N
1499700095.4,286046990.1,N
1499700115.3,286046991.4,N
1499700135.1,286046990.3,N
1499700136.0,286046990.3,N
1499700155.8,286046991.3,N
1499700175.7,286046988.5,N
1499700195.5,286046991.4,N
1499700215.3,286046988.5,N
1499700235.1,286046991.2,N
1499700255.9,286046990.4,N
1499700275.7,286046991.4,N
1499700295.5,286046991.1,N
1499700315.4,286046991.2,N
1499700335.2,286046991.5,N
1499700355.0,286046991.5,N
1499700355.9,286046991.5,N
1499700375.8,286046988.5,N
1499700395.6,286046989.4,N
1499700415.4,286046989.9,N
1499700435.3,286046989.9,N
1499700455.1,286046987.5,N
1499700456.0,286046987.5,N
1499700475.8,286046987.1,N
1499700495.7,286046987.3,N
1499700515.5,286046988.1,N
1499700535.3,286046987.6,N
1499700555.1,286046985.4,N
1499700575.9,286046988.4,N
1499700595.7,286046987.9,N
1499700615.5,286046987.7,N
1499700635.4,286046985.9,N
1499700655.2,286046986.2,N
1499700675.0,286046986.5,N
1499700675.9,286046986.5,N
1499700695.8,286046986.1,N
1499700715.6,286046984.4,N
1499700735.4,286046983.7,N
1499700755.3,286046983.7,N
1499700775.1,286046986.6,N
1499700795.8,286046984.2,N
1499700815.7,286046984.4,N
1499700835.5,286046984.5,N
1499700855.3,286046984.6,N
1499700875.2,286046984.9,N
1499700895.9,286046984.7,N
1499700915.7,286046984.9,N
1499700935.6,286046984.3,N
1499700955.4,286046985.0,N
1499700975.2,286046982.6,N
1499700995.0,286046983.3,N
1499700996.0,286046983.3,N
1499701015.8,286046984.9,N
1499701035.6,286046984.7,N
1499701055.4,286046985.0,N
1499701075.3,286046986.7,N
1499701095.1,286046984.6,N
1499701115.8,286046985.1,N
1499701135.7,286046982.1,N
1499701155.5,286046984.7,N
1499701175.3,286046984.8,N
1499701195.2,286046982.8,N
1499701215.9,286046982.3,N
1499701235.7,286046982.8,N
1499701255.6,286046983.0,N
1499701275.4,286046982.6,N
1499701295.2,286046982.6,N
1499701315.1,286046982.8,N
1499701316.0,286046982.8,N
1499701335.8,286046982.3,N
1499701355.6,286046982.6,N
1499701375.4,286046982.8,N
1499701395.3,286046982.9,N
1499701415.1,286046982.6,N
1499701435.8,286046982.3,N
1499701455.7,286046985.2,N
1499701475.5,286046982.6,N
1499701495.3,286046982.1,N
1499701515.2,286046984.7,N
1499701535.9,286046983.3,N
1499701555.7,286046983.5,N
1499701575.6,286046980.7,N
1499701595.4,286046981.8,N
1499701615.2,286046981.9,N
1499701635.1,286046979.1,N
1499701636.0,286046979.1,N
1499701655.8,286046979.3,N
1499701675.6,286046979.2,N
1499701695.5,286046978.9,N
1499701715.3,286046979.3,N
1499701735.1,286046979.3,N
1499701755.9,286046980.1,N
1499701775.7,286046980.1,N
1499701795.5,286046979.5,N
1499701815.3,286046979.2,N
1499701835.2,286046979.0,N
1499701855.0,286046979.4,N
1499701855.9,286046979.4,N
1499701875.7,286046980.3,N
1499701895.6,286046980.2,N
1499701915.4,286046979.5,N
1499701935.2,286046980.3,N
1499701955.1,286046977.7,N
1499701956.0,286046977.7,N
1499701975.8,286046977.7,N
1499701995.6,286046980.3,N
1499702015.5,286046977.3,N
1499702035.3,286046978.6,N
1499702055.1,286046978.0,N
1499702075.9,286046978.4,N
1499702095.7,286046977.9,N
1499702115.5,286046977.7,N
1499702135.4,286046978.3,N
1499702155.2,286046978.7,N
1499702175.0,286046978.6,N
1499702175.9,286046978.6,N
1499702195.8,286046978.8,N
1499702215.6,286046975.9,N
1499702235.4,286046976.0,N
1499702255.2,286046976.3,N
1499702275.1,286046976.1,N
1499702276.0,286046976.1,N
1499702295.8,286046976.8,N
1499702315.6,286046976.0,N
1499702335.5,286046977.2,N
1499702355.3,286046977.0,N
1499702375.1,286046976.7,N
1499702395.9,286046974.3,N
